ATLAS 5 CENTAUR DEB, 43985

Orbit data source: Space-Track

ATLAS 5 CENTAUR DEB, 43985 is space debris in HEO originally from a launch on Wed, 17 Sep 2014 UTC launched from the Air Force Eastern Test Range (AFETR). Debris objects in space refer to the collection of defunct objects orbiting the Earth. Examples of debris include non-operational satellites, rocket bodies, and fragments generated from explosions, collisions, or faulty payload assembly.

Loading next visibility...
Identifier
43985, 2014-055AQ
Orbit
HEO
Last TLE update
4 weeks ago
Origin
Flag of USUnited Launch Alliance/Lockheed Martin (US)
Manufacturer
Unknown
Mission
Spacecraft
Bus & Motor
Unknown
Mass
Unknown
Launch date (UTC)
2014-09-17 (11 years ago)
Launch vehicle
Unknown
Launch site
Air Force Eastern Test Range (AFETR)
Object type
Payload
Rocket body
Debris
Shape & HBR
Unknown
Radar Cross Section
Small (<0.1 m²)

Expand to show TLE details & history

TLE from 4 weeks ago
0 ATLAS 5 CENTAUR DEB
1 43985U 14055AQ  25162.59841530 -.00000022  00000-0  00000+0 0  9999
2 43985  19.3460 208.0363 4682437  48.1931 343.4652  1.76755759 43721
Epoch: 2025-06-11T14:21Z
TLE epoch observation values (Epoch: 2025-06-11T14:21:43.081Z)
Latitude
0.00001°
Longitude
92.49336°
Altitude
10,778.116 km
Speed
5.716 km/s
True Right ascension
13h 52m 24s
True Declination
0° 00' 00"
Sunlit
Object was in daylight at epoch
Visualization orbit readout
Latitude
-4.15219°
Longitude
-77.9316°
Altitude
28,905.893 km
Speed
2.966 km/s
Apparent Right ascension
03h 02m 39s
Apparent Declination
-10° 40' 15"
Sunlit
Object is in daylight
Visualization observer readout
Local Sidereal Time
20:48:46
Azimuth
96.043° ESE
Elevation
-9.465°
Doppler factor
1
Orbital elements
Apogee altitude
36,049.184 km
Perigee altitude
8,987.838 km
Semi-major axis
28,896.648 km
Eccentricity
0.46824
Inclination
19.346°
RAAN
208.0363°
Arg. of periapsis
48.1931°
True anomaly
Unknown
Mean anomaly
343.4652°
Eccentric anomaly
Unknown
Mean motion
0.44185 °/min
Orbital period
814.76 mins
BSTAR
0
Loading maneuver chart data...
Loading SW <> Apogee altitude chart data...

ATLAS 5 CENTAUR DEB Visibility forecast

Observer location: undefined°, undefined°

Span
Click to sort rows by Start time (UTC) header in descending order
Start Az.
Max El. time (UTC)
Max El. Az.
Max El.
End time (UTC)
End Az.
29 mins2025-07-09 08:14:00.336Z258.473° W2025-07-09 08:43:00.336Z230.525° WSW35.331°2025-07-09 08:43:00.336Z230.525° WSW
|